[[{"header":{"parameterUnit":"m.s-1","parameterCategory":1,"la1":30.2991,"la2":30.254,"lo1":-89.0895,"lo2":-89.0444,"dy":0.0017,"dx":0.0017,"nx":28,"ny":28,"refTime":"2023-11-13T03:00:00:Z","depth":0,"parameterNumber":2,"parameterNumberName":"U-component_of_WINDS"},"data":[0,0,0,0,0,0,0,0,0,0,0,0,0,0,0,0,0,0,0,0,0,0,0,0,0,0,0,0,0,0,0,0,0,0,0,0,0,0,0,0,0,0,0,0,0,0,0,0,0,0,0,0,0,0,0,0,0,0,-3.3528,-3.3528,0,-3.3582,-3.3583,-3.3584,-3.3516,-3.3514,-3.3511,-3.3509,-3.3565,-3.3569,-3.3573,0,0,0,0,0,0,0,0,0,0,0,0,0,-3.3365,-3.3368,-3.3528,-3.3528,-3.3529,-3.3582,-3.3583,-3.3584,-3.3517,-3.3514,-3.3511,-3.3508,-3.3564,-3.3568,-3.3573,0,0,0,0,0,0,0,0,0,0,0,0,0,-3.3429,-3.3369,-3.3528,-3.3502,-3.35,-3.3582,-3.3583,-3.3584,-3.3517,-3.3514,-3.351,-3.3506,-3.3562,-3.3568,-3.3574,-3.3683,0,0,-3.3591,-3.3593,0,0,0,0,0,0,0,0,-3.3425,-3.3435,-3.3505,-3.3504,-3.3502,-3.3539,-3.3546,-3.3617,-3.3518,-3.3511,-3.3509,-3.3505,-3.3559,-3.3565,-3.3583,-3.3686,-3.3688,-3.3591,-3.3595,-3.3597,-3.3599,0,0,0,0,0,0,0,-3.3421,-3.3432,-3.3549,-3.3506,-3.3504,-3.3488,-3.3493,-3.3559,-3.3555,-3.3511,-3.3507,-3.3514,-3.3558,-3.3578,-3.3584,-3.3689,-3.3591,-3.3596,-3.36,-3.3602,-3.3885,-3.3888,0,0,0,0,0,0,-3.342,-3.3429,-3.3548,-3.3551,-3.3454,-3.3494,-3.3499,-3.3531,-3.3554,-3.3554,-3.3517,-3.3511,-3.357,-3.3578,-3.3586,-3.3717,-3.3597,-3.3603,-3.3606,-3.3881,-3.3885,-3.389,0,0,0,0,0,0,-3.3416,-3.3431,-3.3545,-3.3489,-3.3502,-3.35,-3.3536,-3.3534,-3.3554,-3.3559,-3.3558,-3.3539,-3.3568,-3.3578,-3.366,-3.3718,-3.3605,-3.361,-3.3876,-3.3882,-3.3888,-3.3979,0,0,0,0,0,0,-3.3412,-3.343,-3.3472,-3.349,-3.3505,-3.3619,-3.354,-3.3538,-3.3564,-3.3556,-3.3579,-3.3579,-3.3565,-3.3652,-3.3665,-3.3724,-3.3615,-3.3871,-3.3879,-3.3886,-3.3971,-3.3987,-3.4001,0,0,0,0,0,-3.3406,-3.3495,-3.3474,-3.3489,-3.3558,-3.3622,-3.3631,-3.3613,-3.3569,-3.3611,-3.3614,-3.3578,-3.3709,-3.366,-3.3675,-3.3736,-3.3867,-3.3876,-3.3885,-3.3964,-3.3984,-3.4001,0,0,0,0,0,0,-3.3484,-3.3497,-3.3474,-3.3571,-3.3596,-3.361,-3.3663,-3.3635,-3.3673,-3.3664,-3.3641,-3.3647,-3.3734,-3.3743,-3.3689,-3.3844,-3.378,-3.3793,-3.3835,-3.3854,-3.3869,-3.3866,-3.362,0,0,0,0,0,-3.3512,-3.3563,-3.3572,-3.3657,-3.3671,-3.3665,-3.3692,-3.3677,-3.3701,-3.3711,-3.372,-3.3746,-3.3792,-3.3823,-3.3867,-3.3971,-3.3975,-3.402,-3.4036,-3.4048,-3.406,-3.4116,-3.4137,-3.392,-3.392,-3.392,0,0,-3.3571,-3.3585,-3.3619,-3.3673,-3.369,-3.3744,-3.3674,-3.3734,-3.3773,-3.372,-3.3799,-3.3806,-3.3832,-3.3926,-3.3968,-3.3936,-3.412,-3.406,-3.407,-3.4075,-3.4128,-3.4148,-3.4167,-3.3926,-3.3925,-3.3924,0,0,-3.3707,-3.3722,-3.3795,-3.3813,-3.3841,-3.3836,-3.3854,-3.3872,-3.3875,-3.3953,-3.3915,-3.3961,-3.4042,-3.4063,-3.4084,-3.4227,-3.4196,-3.4242,-3.4323,-3.4378,-3.4395,-3.441,-3.4463,-3.4481,-3.4253,-3.4253,-3.4253,0,-3.3777,-3.3856,-3.3836,-3.3898,-3.3924,-3.3878,-3.3952,-3.3971,-3.4011,-3.4029,-3.3993,-3.4094,-3.4108,-3.4207,-3.4242,-3.426,-3.428,-3.424,-3.4395,-3.4409,-3.4423,-3.4473,-3.4492,-3.4259,-3.4258,-3.4257,-3.4257,0,-3.3942,-3.3998,-3.4053,-3.4093,-3.4124,-3.4193,-3.4182,-3.4216,-3.4198,-3.4197,-3.4277,-3.4293,-3.4339,-3.4361,-3.4343,-3.4457,-3.4437,-3.4398,-3.4334,-3.445,-3.4496,-3.4515,-3.4266,-3.4265,-3.4263,-3.4262,0,0,-3.4128,-3.4156,-3.4177,-3.4195,-3.4221,-3.4264,-3.433,-3.4375,-3.4405,-3.4433,-3.4489,-3.4558,-3.4522,-3.4546,-3.4531,-3.4579,-3.4693,-3.4534,-3.4535,-3.4564,-3.482,-3.485,-3.4872,-3.4672,-3.4675,-3.4678,-3.4818,0,-3.4265,-3.438,-3.4363,-3.4473,-3.4525,-3.4482,-3.4539,-3.4562,-3.4563,-3.4606,-3.4607,-3.4657,-3.4606,-3.462,-3.4666,-3.4669,-3.4744,-3.4659,-3.4723,-3.4726,-3.4719,-3.4896,-3.4928,-3.5059,-3.4836,-3.4839,-3.4841,0,-3.444,-3.4476,-3.4592,-3.461,-3.4631,-3.4683,-3.4723,-3.4765,-3.479,-3.4787,-3.4814,-3.479,-3.4856,-3.479,-3.488,-3.4823,-3.4848,-3.4853,-3.4858,-3.4865,-3.4791,-3.4908,-3.5101,-3.5121,-3.4869,-3.4867,-3.4865,0,-3.4566,-3.4643,-3.4722,-3.4739,-3.4762,-3.48,-3.4811,-3.4832,-3.486,-3.4895,-3.4913,-3.4955,-3.4978,-3.5011,-3.4999,-3.4952,-3.5093,-3.5025,-3.5093,-3.5093,-3.5125,-3.5124,-3.5326,-3.514,-3.5139,-3.5139,-3.5139,0,-3.4721,-3.4794,-3.4779,-3.4828,-3.4909,-3.4888,-3.4968,-3.4974,-3.4993,-3.5043,-3.5007,-3.5054,-3.5034,-3.508,-3.5071,-3.5148,-3.5158,-3.5158,-3.5155,-3.5162,-3.5163,-3.5179,-3.517,-3.5144,-3.5143,-3.5142,-3.5141,0,-3.4876,-3.4869,-3.4953,-3.4968,-3.4974,-3.5033,-3.5046,-3.5092,-3.5089,-3.5153,-3.5166,-3.5163,-3.5215,-3.5206,-3.5263,-3.5257,-3.5354,-3.5338,-3.5346,-3.5343,-3.5411,-3.5405,-3.5632,-3.5661,-3.5455,-3.5457,-3.5459,0,-3.4976,-3.5031,-3.5053,-3.5084,-3.5098,-3.5148,-3.5177,-3.5158,-3.519,-3.5222,-3.5264,-3.5313,-3.5351,-3.5436,-3.5439,-3.5483,-3.547,-3.5546,-3.5476,-3.5482,-3.5472,-3.547,-3.5475,-3.556,-3.5563,-3.5565,-3.5566,0,-3.5155,-3.5149,-3.5192,-3.5234,-3.5269,-3.5301,-3.533,-3.5357,-3.5341,-3.5378,-3.5431,-3.5461,-3.552,-3.5569,-3.561,-3.5621,-3.5592,-3.5588,-3.5606,-3.5615,-3.5617,-3.5618,-3.5385,-3.5583,-3.5582,-3.558,-3.5579,-3.5579,-3.5287,-3.5334,-3.5357,-3.5406,-3.5425,-3.5453,-3.5497,-3.5501,-3.5545,-3.5591,-3.5577,-3.5638,-3.5661,-3.5712,-3.5729,-3.5776,-3.5747,-3.5773,-3.578,-3.5787,-3.5796,-3.5609,-3.5783,-3.5782,-3.5782,-3.5781,-3.5781,0,-3.5465,-3.5477,-3.5522,-3.5564,-3.5603,-3.5571,-3.5601,-3.5635,-3.5689,-3.5713,-3.5751,-3.5813,-3.586,-3.5867,-3.5912,-3.5948,-3.5936,-3.5961,-3.5958,-3.5962,-3.5818,-3.5799,-3.597,-3.597,-3.597,-3.597,-3.597,-3.597,-3.5562,-3.5641,-3.5637,-3.5725,-3.5737,-3.5796,-3.5816,-3.5841,-3.586,-3.593,-3.597,-3.5973,-3.5991,-3.6037,-3.6079,-3.6079,-3.6098,-3.6129,-3.6124,-3.599,-3.5972,-3.5954,-3.5935,-3.6133,-3.6133,-3.6264,-3.6265,-3.6266]},{"header":{"parameterUnit":"m.s-1","parameterCategory":1,"la1":30.2991,"la2":30.254,"lo1":-89.0895,"lo2":-89.0444,"dy":0.0017,"dx":0.0017,"nx":28,"ny":28,"refTime":"2023-11-13T03:00:00:Z","depth":0,"parameterNumber":3,"parameterNumberName":"V-component_of_WINDS"},"data":[0,0,0,0,0,0,0,0,0,0,0,0,0,0,0,0,0,0,0,0,0,0,0,0,0,0,0,0,0,0,0,0,0,0,0,0,0,0,0,0,0,0,0,0,0,0,0,0,0,0,0,0,0,0,0,0,0,0,-5.8577,-5.8577,0,-5.8616,-5.8617,-5.8617,-5.8543,-5.8541,-5.8538,-5.8536,-5.8572,-5.8576,-5.8579,0,0,0,0,0,0,0,0,0,0,0,0,0,-5.8432,-5.8435,-5.8576,-5.8577,-5.8578,-5.8616,-5.8617,-5.8617,-5.8543,-5.8541,-5.8538,-5.8535,-5.8571,-5.8575,-5.8579,0,0,0,0,0,0,0,0,0,0,0,0,0,-5.8485,-5.8436,-5.8576,-5.8545,-5.8543,-5.8616,-5.8617,-5.8618,-5.8544,-5.854,-5.8537,-5.8533,-5.857,-5.8575,-5.858,-5.8684,0,0,-5.8595,-5.8597,0,0,0,0,0,0,0,0,-5.8482,-5.8491,-5.8549,-5.8548,-5.8545,-5.8571,-5.8579,-5.864,-5.8545,-5.8544,-5.8536,-5.8532,-5.8575,-5.8579,-5.8594,-5.8685,-5.8687,-5.8595,-5.8598,-5.86,-5.8601,0,0,0,0,0,0,0,-5.8479,-5.8488,-5.8592,-5.855,-5.8548,-5.8528,-5.8532,-5.859,-5.8579,-5.8543,-5.8538,-5.8544,-5.8573,-5.859,-5.8595,-5.8687,-5.8595,-5.8599,-5.8602,-5.8604,-5.8865,-5.8868,0,0,0,0,0,0,-5.8479,-5.8486,-5.8591,-5.8593,-5.8504,-5.8534,-5.8538,-5.8566,-5.8578,-5.8577,-5.8547,-5.8541,-5.8583,-5.8589,-5.8596,-5.8718,-5.86,-5.8605,-5.8607,-5.8861,-5.8866,-5.887,0,0,0,0,0,0,-5.8477,-5.849,-5.8589,-5.8538,-5.8549,-5.854,-5.8573,-5.8569,-5.8586,-5.8581,-5.8578,-5.8567,-5.8581,-5.8589,-5.8662,-5.8718,-5.8607,-5.8611,-5.8856,-5.8862,-5.8868,-5.8963,0,0,0,0,0,0,-5.8473,-5.8489,-5.853,-5.854,-5.8552,-5.8657,-5.8576,-5.8573,-5.8595,-5.8587,-5.8599,-5.8598,-5.8578,-5.8656,-5.8667,-5.8723,-5.8615,-5.8851,-5.8859,-5.8866,-5.8955,-5.8972,-5.8986,0,0,0,0,0,-5.8468,-5.8554,-5.8532,-5.8545,-5.8603,-5.866,-5.8667,-5.8645,-5.86,-5.864,-5.8637,-5.8597,-5.871,-5.8664,-5.8676,-5.8734,-5.8847,-5.8857,-5.8865,-5.8948,-5.8969,-5.8986,0,0,0,0,0,0,-5.8549,-5.8555,-5.853,-5.8623,-5.8642,-5.8648,-5.8697,-5.8667,-5.8698,-5.8689,-5.8658,-5.8661,-5.8741,-5.8745,-5.8693,-5.8835,-5.8771,-5.8783,-5.883,-5.8849,-5.8864,-5.8862,-5.8619,0,0,0,0,0,-5.8578,-5.8625,-5.8627,-5.8708,-5.8719,-5.8707,-5.8731,-5.8712,-5.873,-5.8737,-5.8739,-5.8757,-5.8796,-5.8823,-5.8859,-5.8955,-5.8956,-5.9001,-5.9017,-5.9029,-5.904,-5.9091,-5.9111,-5.8899,-5.8899,-5.8899,0,0,-5.8637,-5.8646,-5.8678,-5.8725,-5.8737,-5.8786,-5.8714,-5.8768,-5.8804,-5.8745,-5.8815,-5.8817,-5.8835,-5.892,-5.8958,-5.8926,-5.9099,-5.9041,-5.9051,-5.9055,-5.9102,-5.9122,-5.914,-5.8905,-5.8904,-5.8903,0,0,-5.8771,-5.8783,-5.8852,-5.8866,-5.8887,-5.8878,-5.8895,-5.8905,-5.8905,-5.8975,-5.8932,-5.8973,-5.9041,-5.9056,-5.9072,-5.9211,-5.9175,-5.9223,-5.9304,-5.9354,-5.9371,-5.9385,-5.9435,-5.9453,-5.9234,-5.9234,-5.9234,0,-5.8842,-5.8915,-5.8891,-5.8949,-5.897,-5.892,-5.8989,-5.9003,-5.9034,-5.9049,-5.9013,-5.9098,-5.9107,-5.9195,-5.9229,-5.9244,-5.9261,-5.9222,-5.9371,-5.9385,-5.9398,-5.9445,-5.9463,-5.924,-5.9239,-5.9238,-5.9238,0,-5.9001,-5.9052,-5.9105,-5.9138,-5.9165,-5.9228,-5.9212,-5.9242,-5.9221,-5.9215,-5.9287,-5.9295,-5.9332,-5.9351,-5.933,-5.9437,-5.9416,-5.9376,-5.9311,-5.9424,-5.9468,-5.9485,-5.9248,-5.9246,-5.9244,-5.9243,0,0,-5.9187,-5.9206,-5.9226,-5.924,-5.9259,-5.9297,-5.9357,-5.9394,-5.9421,-5.9443,-5.9492,-5.9551,-5.9514,-5.9533,-5.9513,-5.9557,-5.9666,-5.9511,-5.9511,-5.9539,-5.9783,-5.9813,-5.9834,-5.9643,-5.9646,-5.9649,-5.9782,0,-5.9319,-5.9425,-5.9405,-5.9507,-5.9553,-5.9507,-5.9559,-5.9576,-5.9572,-5.961,-5.9605,-5.9648,-5.9596,-5.9606,-5.9648,-5.9644,-5.9715,-5.9634,-5.9687,-5.9689,-5.9684,-5.9857,-5.9889,-6.0014,-5.9798,-5.9801,-5.9803,0,-5.9488,-5.9519,-5.9627,-5.9638,-5.9657,-5.9704,-5.9737,-5.9774,-5.9791,-5.9785,-5.9806,-5.9778,-5.9836,-5.9771,-5.985,-5.9796,-5.9816,-5.9818,-5.9822,-5.9826,-5.9753,-5.9865,-6.0053,-6.0072,-5.983,-5.9828,-5.9826,0,-5.9613,-5.9681,-5.9754,-5.9767,-5.9783,-5.9817,-5.9825,-5.9839,-5.9862,-5.989,-5.9905,-5.9939,-5.9957,-5.9983,-5.9964,-5.9918,-6.0046,-5.998,-6.0042,-6.0043,-6.0071,-6.007,-6.0265,-6.0085,-6.0085,-6.0084,-6.0084,0,-5.9763,-5.9831,-5.981,-5.9855,-5.9929,-5.9904,-5.9978,-5.9979,-5.9992,-6.0036,-5.9997,-6.0038,-6.001,-6.0049,-6.0034,-6.0102,-6.011,-6.0107,-6.0102,-6.011,-6.0111,-6.0123,-6.0114,-6.0089,-6.0088,-6.0087,-6.0086,0,-5.9915,-5.9904,-5.9981,-5.9989,-5.9993,-6.0047,-6.0053,-6.0094,-6.0088,-6.0144,-6.0155,-6.0145,-6.0188,-6.0172,-6.0218,-6.0208,-6.0294,-6.0278,-6.0289,-6.0285,-6.0349,-6.0343,-6.0559,-6.0585,-6.0388,-6.039,-6.0391,0,-6.0011,-6.0063,-6.0077,-6.0104,-6.0115,-6.0159,-6.0183,-6.0161,-6.0187,-6.0211,-6.0249,-6.0289,-6.032,-6.0392,-6.0387,-6.0422,-6.0406,-6.0479,-6.0411,-6.0418,-6.0407,-6.0404,-6.0409,-6.0493,-6.0495,-6.0497,-6.0499,0,-6.0184,-6.0176,-6.0214,-6.025,-6.028,-6.0307,-6.033,-6.0354,-6.0332,-6.0364,-6.0409,-6.0433,-6.048,-6.052,-6.0551,-6.0557,-6.0525,-6.052,-6.0537,-6.0546,-6.055,-6.0548,-6.0326,-6.0515,-6.0514,-6.0513,-6.0512,-6.0511,-6.0311,-6.0354,-6.0372,-6.0414,-6.043,-6.0452,-6.0491,-6.049,-6.0528,-6.0566,-6.0549,-6.0601,-6.0616,-6.0654,-6.0665,-6.0704,-6.0675,-6.0699,-6.0705,-6.0711,-6.072,-6.0544,-6.0709,-6.0709,-6.0708,-6.0708,-6.0708,0,-6.0481,-6.049,-6.053,-6.0564,-6.0598,-6.0566,-6.0589,-6.0619,-6.0665,-6.0683,-6.0715,-6.0766,-6.0804,-6.0803,-6.0839,-6.087,-6.0856,-6.088,-6.0878,-6.088,-6.0743,-6.0726,-6.0891,-6.0891,-6.0891,-6.0891,-6.0891,-6.0891,-6.0574,-6.0646,-6.064,-6.0718,-6.0726,-6.0777,-6.0794,-6.0814,-6.0828,-6.0887,-6.092,-6.0919,-6.0929,-6.0965,-6.0999,-6.0997,-6.1012,-6.1042,-6.1035,-6.0907,-6.0889,-6.0872,-6.0855,-6.1045,-6.1046,-6.1168,-6.1169,-6.117]}]]